Regional Weather Roundup
Issued by NWS

Home | Current Version | Previous Version | Graphics & Text | Print | Product List | Glossary On
Versions: 1 2 3 4 5 6 7 8 9 10 11 12 13 14 15 16 17 18 19 20 21 22 23 24 25 26 27 28 29 30 31 32 33 34 35 36 37 38 39 40 41 42 43 44 45 46 47 48 49 50
000
ASUS43 KLMK 300310
RWRKY
KENTUCKY REGIONAL WEATHER ROUNDUP
NATIONAL WEATHER SERVICE LOUISVILLE KY
1100 PM EDT SUN MAY 29 2016

NOTE "FAIR" INDICATES FEW OR NO CLOUDS BELOW 12,000 FEET
WITH NO SIGNIFICANT WEATHER AND/OR OBSTRUCTIONS TO VISIBILITY.

KYZ001>023-026-027-061>063-070>075-300400-
WESTERN AND SOUTH CENTRAL KENTUCKY

CITY           SKY/WX    TMP DP  RH WIND       PRES   REMARKS
PADUCAH        PTCLDY    69  64  84 CALM      30.05R
HENDERSON      PTCLDY    72  64  78 CALM      30.03R
OWENSBORO      PTCLDY    73  67  81 CALM      30.04R
HOPKINSVILLE   CLOUDY    73  65  78 SW5       30.05R
BOWLING GREEN  CLEAR     76  64  66 CALM      30.04R
GLASGOW        CLEAR     72  64  77 CALM      30.04S
$$

KYZ024-025-028>034-038-045-046-053-300400-
NORTH CENTRAL KENTUCKY

CITY           SKY/WX    TMP DP  RH WIND       PRES   REMARKS
LOUISVILLE/SDF PTCLDY    76  59  55 W3        30.02R
LOUISVILLE/LOU CLEAR     76  61  59 W6        30.03R
FORT KNOX      CLEAR     68  62  80 W5        30.03R
$$

KYZ035>037-039>044-047>052-055>060-089>105-300400-
NORTHEAST KENTUCKY

CITY           SKY/WX    TMP DP  RH WIND       PRES   REMARKS
LEXINGTON      PTCLDY    73  66  78 SW7       30.04R
COVINGTON      PTCLDY    71  65  81 NW6       30.02S
FRANKFORT      CLEAR     73  64  73 CALM      30.02R
$$

KYZ054-064>069-076>088-106>120-300400-
SOUTHEAST KENTUCKY

CITY           SKY/WX    TMP DP  RH WIND       PRES   REMARKS
JACKSON        CLEAR     73  64  73 CALM      30.08R
LONDON         MOCLDY    71  64  78 CALM      30.07S
SOMERSET       PTCLDY    68  66  94 CALM      30.07R
MIDDLESBORO    CLEAR     65  63  94 CALM      30.10S
MONTICELLO     CLEAR     69  67  93 W9        30.08R
$$





USA.gov is the U.S. government's official web portal to all federal, state and local government web resources and services.